Wind_Speed
22 21 20 20 19 17 16 15 13 12 12 13 15 15 13 11 10 11 12 11 12 12 11 10 10 9 9 9 9 10 10 10 9 9 10 9 10 10 10 10 10 10
23 22 21 21 20 19 17 16 14 13 12 13 14 14 12 11 10 10 11 12 12 12 11 10 10 9 9 8 8 9 9 10 9 9 10 10 10 11 11 11 11 11
24 23 23 23 22 21 19 17 15 14 13 13 13 13 12 11 11 10 10 11 12 13 12 10 10 9 8 7 7 8 9 10 9 9 10 11 11 11 11 11 11 11
26 25 25 24 23 22 20 18 17 15 14 14 14 13 13 12 11 12 11 11 12 13 13 12 11 10 9 8 8 9 9 10 10 10 11 11 11 11 11 11 11 11
27 27 26 25 24 22 21 20 18 16 16 16 15 13 13 12 13 13 13 12 12 12 13 13 12 11 10 10 9 10 10 10 10 11 12 12 12 11 11 11 11 11
28 28 27 26 25 23 22 20 19 18 18 17 16 15 14 13 14 14 14 13 13 13 13 13 13 12 11 10 10 10 11 11 11 12 13 13 12 12 12 12 12 12
27 28 28 26 25 24 23 22 21 20 20 19 17 16 15 15 15 15 15 14 14 13 12 12 12 11 10 9 10 10 10 11 12 13 13 13 12 12 12 12 12 13
26 27 27 27 26 25 24 24 23 22 21 20 18 17 16 16 16 16 16 15 15 15 13 12 12 11 10 10 11 10 10 11 12 13 14 14 13 13 12 12 12 13
27 27 27 27 27 26 26 25 24 22 21 20 19 17 17 17 17 16 16 16 17 16 15 14 14 13 12 13 13 13 13 12 12 13 13 13 13 12 12 12 13 14
27 27 28 28 28 27 27 26 24 23 22 21 20 19 18 18 17 17 17 18 18 18 18 17 16 16 15 15 15 15 15 14 13 13 13 14 14 14 14 15 16 17
27 27 28 28 28 28 27 26 25 24 23 22 21 20 20 18 18 17 17 18 19 19 18 18 17 17 18 18 18 18 18 18 17 16 15 16 16 17 17 18 18 19
30 28 29 29 28 28 27 26 25 24 23 23 22 21 20 19 19 18 18 18 19 18 18 17 17 18 19 20 20 20 20 20 20 19 18 18 18 18 18 19 20 20
34 31 29 30 29 28 27 27 26 25 24 23 22 21 21 20 20 20 19 18 17 17 17 17 17 19 20 20 20 18 18 18 18 17 17 18 18 18 18 19 20 20
36 33 30 30 30 28 28 27 26 25 24 23 22 22 22 21 21 20 19 18 17 17 18 18 19 19 20 19 18 17 16 16 16 16 16 17 17 18 19 19 20 20
34 34 30 28 30 29 28 27 26 26 25 23 22 22 22 22 22 21 21 20 20 19 19 19 20 20 20 19 17 17 17 17 17 17 17 18 19 20 20 20 21 21
32 34 31 28 28 29 28 27 26 26 26 25 23 22 22 22 21 22 22 22 21 20 20 21 21 21 21 20 19 18 18 19 19 19 19 19 20 20 21 21 21 21
32 33 31 29 27 28 28 27 26 26 25 25 24 22 22 21 21 22 21 20 20 19 19 19 20 20 20 21 21 21 21 21 20 20 19 20 20 20 21 21 21 20
32 33 33 30 28 26 25 24 25 25 24 24 24 23 22 21 21 22 20 19 19 19 18 18 18 18 19 20 21 21 22 22 21 20 20 20 20 21 21 22 21 20
35 36 35 32 28 26 24 23 23 23 23 24 25 24 22 21 21 22 21 21 21 21 21 21 20 20 20 20 21 21 22 22 22 21 21 21 21 22 22 22 21 19
37 37 35 32 29 27 26 25 24 23 23 24 25 25 23 21 21 22 22 23 24 23 23 22 22 22 21 21 22 22 22 22 22 23 22 22 22 22 21 22 21 19
34 34 34 32 29 28 28 27 25 24 23 23 24 23 22 22 22 22 22 23 24 22 23 23 22 22 22 22 23 23 23 23 23 23 23 23 23 22 21 22 20 18
32 30 30 28 27 28 29 28 26 25 25 23 20 19 21 22 20 19 20 22 22 21 22 23 23 22 23 24 24 24 24 24 24 24 25 25 24 23 23 23 20 18
30 27 26 26 26 26 27 27 26 26 26 24 20 19 20 19 17 17 19 21 22 22 23 24 23 23 24 24 24 24 25 25 25 26 26 26 25 25 24 23 20 19
29 27 26 25 24 23 23 25 26 25 25 24 23 23 22 18 16 17 19 22 23 23 23 23 23 23 24 24 25 25 25 25 26 25 25 25 23 23 24 23 22 21
26 25 25 24 22 19 18 19 19 18 18 18 19 21 18 15 14 15 19 21 22 22 22 22 23 24 24 25 25 25 25 25 25 25 25 24 22 23 25 24 20 17
21 23 23 21 18 15 14 12 11 11 12 12 14 15 14 13 14 16 19 21 22 23 23 23 24 25 25 25 24 24 25 26 25 24 24 22 22 24 24 20 16 12
Wind_Direction
203 204 205 207 208 208 209 210 212 215 218 219 220 222 227 233 235 236 238 240 241 241 242 244 247 251 256 259 264 267 268 270 267 266 268 271 272 268 267 272 280 282
207 208 210 212 212 212 213 213 214 219 221 222 222 223 227 233 235 236 237 238 240 241 239 242 247 251 256 259 262 264 266 268 269 270 271 271 270 267 268 272 276 279
213 212 214 216 217 217 218 219 220 223 225 225 224 225 229 234 238 239 240 242 242 241 239 241 243 245 249 255 260 265 266 268 273 277 276 275 276 275 276 277 276 276
219 218 218 220 222 222 223 224 226 228 230 229 229 229 230 234 239 240 241 245 245 241 240 240 238 236 241 250 259 267 271 274 277 279 279 278 278 279 279 279 277 276
223 223 224 224 224 225 226 227 229 232 236 236 234 234 234 235 239 240 241 244 244 240 240 240 238 237 243 253 261 270 275 279 281 281 279 277 276 277 279 280 279 277
228 227 227 228 227 226 228 231 233 238 241 240 238 239 240 241 242 243 245 244 240 238 239 241 242 243 249 260 269 277 280 280 280 280 278 277 275 275 277 279 280 279
232 231 230 229 230 230 233 236 238 242 242 240 240 240 242 244 246 247 247 244 237 234 237 241 243 246 252 262 271 278 283 282 279 277 277 278 277 275 275 276 276 277
232 233 232 232 233 234 236 238 240 243 243 241 240 240 243 247 250 249 247 242 237 235 237 239 240 242 247 255 262 269 277 282 281 278 274 272 274 276 277 278 278 280
232 233 233 234 235 237 239 239 240 242 242 241 241 243 248 252 254 252 245 239 237 238 240 242 243 244 247 252 255 259 265 273 280 280 275 270 271 276 281 284 286 288
235 233 233 234 235 237 239 240 241 242 242 243 245 248 253 255 254 252 244 238 238 240 244 247 250 252 255 257 258 259 261 263 267 270 270 270 273 279 285 287 288 289
240 236 233 234 235 236 238 239 241 242 244 246 248 250 252 252 251 249 245 241 241 244 248 251 254 257 261 264 265 266 266 264 262 262 264 268 273 280 286 289 291 291
243 240 235 233 234 236 238 239 239 240 242 245 248 250 251 251 249 247 245 244 244 247 250 253 257 261 264 268 269 270 269 267 266 265 266 270 275 281 287 291 292 293
244 244 239 235 234 235 237 239 239 239 240 242 246 249 252 252 251 249 245 244 245 248 251 256 262 267 269 270 270 269 269 269 269 272 274 276 280 285 289 292 292 292
243 246 244 238 235 235 236 238 240 240 239 241 243 248 251 253 253 249 244 244 248 252 256 261 266 271 272 271 267 266 269 271 274 279 282 283 286 289 292 294 293 292
239 243 245 241 237 235 235 236 239 241 241 242 243 245 249 251 250 247 244 246 250 253 258 261 265 269 271 271 268 268 272 275 277 280 284 288 290 292 294 295 295 293
238 241 243 242 238 236 235 235 238 240 242 243 243 244 243 243 244 244 243 246 251 257 262 264 265 266 269 272 273 275 279 278 276 278 284 289 292 294 297 297 293 289
236 239 241 241 240 238 236 236 236 238 240 241 240 237 236 236 238 240 244 249 255 261 266 267 268 268 269 271 272 275 277 276 275 276 281 286 290 294 296 293 289 287
234 236 237 238 239 239 238 238 239 238 237 236 234 233 233 232 232 235 241 247 251 258 265 270 271 270 267 267 266 268 270 271 273 274 278 283 286 289 289 287 288 292
238 237 237 238 239 238 236 237 240 240 237 233 234 235 236 237 237 237 240 242 246 256 266 270 268 265 263 262 263 264 265 267 270 272 276 280 283 285 286 284 286 289
242 240 239 239 237 234 233 232 234 238 239 238 238 238 242 247 247 243 242 245 251 259 264 264 263 262 262 262 263 264 265 266 268 270 273 275 278 282 282 280 280 282
245 243 241 239 235 234 234 233 231 232 237 241 243 243 245 246 244 243 245 248 251 255 259 261 263 266 267 266 265 264 264 265 266 267 269 270 272 274 273 273 275 277
244 241 239 239 238 237 237 235 232 231 235 238 240 240 238 234 236 244 251 253 253 255 259 262 265 268 268 268 266 265 263 263 263 264 265 266 267 267 267 267 272 278
243 241 238 238 238 237 235 233 230 230 234 236 237 240 239 234 235 245 252 255 257 260 263 265 267 267 268 268 268 266 264 262 261 262 264 266 266 266 266 265 267 271
241 241 238 235 233 232 231 231 228 227 230 235 241 246 245 240 238 245 251 256 259 262 263 265 267 268 269 269 269 267 265 262 262 264 267 269 268 266 264 264 263 260
235 235 235 232 227 222 220 222 222 220 221 227 235 240 240 241 246 254 259 262 262 263 264 265 268 269 270 270 269 270 270 268 266 267 269 270 271 269 268 266 260 254
223 220 219 219 212 198 190 195 202 208 214 221 232 240 248 257 261 261 261 261 262 264 266 268 270 270 270 271 271 273 274 274 274 275 275 273 271 267 263 259 252 244
Height
1549 1551 1552 1553 1555 1556 1558 1559 1560 1561 1561 1562 1563 1564 1565 1566 1567 1567 1568 1569 1569 1570 1570 1571 1571 1571 1572 1572 1573 1573 1573 1574 1574 1574 1575 1575 1575 1575 1575 1575 1575 1574
1548 1549 1551 1552 1554 1555 1556 1558 1559 1560 1561 1561 1562 1563 1564 1565 1566 1566 1567 1567 1568 1569 1569 1570 1570 1570 1571 1571 1572 1572 1572 1573 1573 1573 1574 1573 1574 1574 1574 1574 1573 1573
1547 1548 1549 1551 1552 1554 1555 1556 1558 1559 1560 1561 1561 1562 1563 1564 1565 1565 1566 1566 1567 1568 1568 1569 1569 1569 1570 1570 1571 1571 1571 1571 1572 1572 1572 1572 1572 1573 1572 1573 1572 1572
1546 1547 1548 1549 1551 1552 1554 1555 1556 1557 1558 1560 1560 1561 1562 1563 1564 1564 1565 1565 1566 1567 1567 1567 1568 1568 1569 1569 1570 1570 1570 1570 1571 1571 1571 1571 1571 1571 1571 1571 1571 1572
1544 1545 1546 1548 1549 1551 1552 1553 1555 1556 1557 1558 1559 1560 1561 1562 1563 1563 1563 1564 1564 1565 1566 1566 1567 1567 1568 1568 1569 1569 1569 1569 1569 1569 1569 1570 1570 1570 1570 1571 1571 1571
1543 1544 1545 1547 1548 1549 1551 1552 1553 1554 1555 1557 1558 1559 1560 1560 1561 1562 1562 1563 1564 1564 1565 1565 1566 1566 1567 1567 1568 1568 1568 1568 1568 1568 1568 1568 1569 1569 1569 1569 1570 1570
1541 1543 1544 1545 1547 1548 1549 1550 1552 1553 1554 1555 1556 1557 1558 1559 1560 1561 1561 1562 1563 1563 1564 1564 1565 1565 1566 1566 1566 1567 1567 1567 1567 1567 1567 1567 1568 1568 1568 1568 1568 1568
1539 1541 1542 1544 1545 1546 1547 1548 1550 1551 1552 1554 1555 1555 1557 1557 1558 1559 1560 1561 1562 1562 1563 1563 1564 1564 1564 1565 1565 1565 1565 1566 1566 1566 1566 1566 1566 1567 1567 1567 1567 1567
1537 1539 1541 1542 1544 1544 1546 1547 1548 1549 1551 1552 1553 1554 1555 1556 1557 1558 1558 1559 1560 1561 1561 1562 1562 1563 1563 1563 1563 1564 1564 1564 1565 1565 1565 1565 1565 1566 1566 1566 1566 1566
1535 1537 1539 1540 1541 1542 1544 1545 1547 1548 1549 1550 1552 1553 1553 1554 1555 1556 1557 1557 1558 1559 1559 1560 1561 1561 1562 1562 1562 1562 1562 1563 1563 1563 1563 1564 1564 1564 1565 1565 1565 1565
1533 1535 1536 1537 1539 1540 1542 1543 1545 1546 1548 1549 1550 1551 1552 1553 1554 1554 1555 1555 1556 1557 1558 1558 1559 1560 1560 1561 1561 1561 1561 1561 1561 1561 1562 1562 1562 1563 1563 1564 1563 1563
1531 1532 1533 1535 1537 1538 1540 1541 1543 1544 1546 1547 1548 1549 1550 1551 1552 1552 1553 1554 1555 1556 1556 1557 1557 1558 1559 1559 1560 1560 1560 1560 1560 1560 1560 1560 1561 1561 1561 1562 1562 1562
1527 1529 1531 1532 1534 1536 1538 1539 1541 1542 1544 1545 1546 1547 1548 1549 1550 1550 1551 1552 1553 1554 1555 1555 1556 1556 1557 1558 1558 1558 1558 1558 1558 1558 1558 1559 1559 1560 1560 1560 1560 1560
1523 1526 1528 1530 1532 1533 1535 1537 1538 1540 1541 1543 1544 1545 1546 1547 1547 1548 1549 1550 1551 1552 1553 1554 1554 1555 1556 1556 1557 1557 1557 1557 1557 1557 1557 1557 1558 1558 1558 1558 1558 1558
1520 1523 1525 1527 1529 1530 1532 1534 1536 1538 1539 1541 1542 1542 1543 1544 1545 1546 1547 1548 1549 1550 1551 1552 1553 1553 1554 1555 1555 1555 1555 1555 1555 1555 1555 1555 1556 1556 1556 1556 1556 1555
1517 1519 1522 1524 1526 1527 1529 1531 1533 1535 1537 1538 1539 1540 1540 1541 1542 1543 1545 1546 1547 1548 1549 1550 1551 1551 1552 1553 1554 1554 1554 1554 1553 1553 1553 1553 1554 1554 1554 1554 1553 1552
1514 1515 1518 1521 1522 1524 1526 1528 1530 1532 1534 1535 1536 1537 1537 1538 1539 1540 1542 1544 1545 1546 1547 1548 1548 1549 1550 1551 1551 1551 1552 1551 1551 1551 1551 1551 1552 1552 1551 1551 1550 1550
1511 1513 1515 1517 1519 1521 1523 1525 1527 1529 1530 1532 1533 1534 1535 1535 1536 1537 1539 1541 1543 1544 1545 1545 1546 1546 1547 1547 1548 1548 1549 1549 1548 1549 1549 1549 1549 1549 1549 1548 1548 1548
1508 1510 1513 1515 1517 1519 1520 1522 1524 1526 1528 1529 1530 1532 1533 1533 1534 1535 1537 1538 1539 1540 1542 1542 1543 1543 1544 1544 1545 1546 1546 1546 1546 1546 1546 1547 1547 1547 1547 1546 1546 1546
1507 1510 1512 1514 1515 1516 1516 1518 1521 1523 1525 1527 1529 1531 1532 1533 1533 1534 1535 1537 1537 1538 1539 1539 1540 1540 1541 1542 1543 1543 1544 1544 1544 1543 1543 1544 1544 1544 1545 1544 1544 1544
1506 1509 1511 1512 1513 1514 1514 1516 1518 1520 1522 1525 1527 1529 1530 1531 1531 1532 1533 1535 1535 1536 1537 1537 1537 1538 1539 1540 1541 1541 1541 1541 1541 1541 1540 1541 1541 1542 1541 1541 1541 1542
1503 1506 1508 1510 1512 1513 1514 1515 1516 1517 1518 1521 1525 1527 1527 1526 1528 1530 1531 1533 1535 1536 1536 1535 1534 1535 1536 1537 1538 1538 1538 1538 1538 1537 1537 1538 1538 1538 1538 1538 1540 1540
1500 1503 1505 1507 1508 1509 1511 1514 1515 1515 1516 1518 1522 1525 1524 1524 1525 1527 1528 1530 1533 1534 1534 1532 1532 1532 1533 1534 1534 1535 1535 1535 1535 1534 1535 1535 1536 1536 1536 1536 1537 1537
1498 1500 1502 1504 1505 1506 1508 1511 1513 1514 1514 1516 1519 1522 1523 1523 1523 1524 1524 1526 1529 1530 1530 1529 1529 1529 1530 1530 1531 1531 1532 1532 1531 1531 1533 1533 1533 1534 1533 1533 1533 1534
1496 1498 1500 1501 1502 1503 1506 1509 1511 1511 1512 1513 1516 1520 1521 1521 1521 1521 1521 1523 1525 1526 1526 1526 1526 1526 1526 1527 1528 1529 1529 1528 1528 1528 1530 1531 1532 1532 1531 1530 1530 1532
1495 1496 1498 1500 1501 1502 1505 1508 1509 1510 1511 1512 1515 1517 1517 1518 1518 1518 1519 1520 1522 1522 1522 1522 1522 1522 1523 1524 1525 1526 1526 1525 1525 1526 1527 1528 1529 1528 1527 1527 1528 1530